Weather History for PATO - March, 2013

Change the Weather History Date:

Monday, March 18, 2013

  Actual Average Record
Temperature  
Mean Temperature 14 °F -  
Max Temperature 26 °F - - ()
Min Temperature 1 °F - - ()
Degree Days  
Heating Degree Days 52    
Moisture  
Dew Point 7 °F    
Average Humidity 75    
Maximum Humidity 96    
Minimum Humidity 51    
Precipitation  
Precipitation 0.00 in - - ()
Sea Level Pressure  
Sea Level Pressure 29.93 in    
Wind  
Wind Speed 2 mph (WNW)    
Max Wind Speed 12 mph    
Max Gust Speed -    
Visibility 10 miles    
Events      
T = Trace of Precipitation, MM = Missing Value Source: NWS Daily Summary

Daily Weather History Graph

Daily Weather History Graph

Search for Another Location

Airport or City:

Trip Planner

Search our weather history database for the weather conditions in past years. The results will help you decide how hot, cold, wet, or windy it might be!

Date:

Astronomy

Mar. 18, 2013 Rise Set
Actual Time 8:01 AM AKDT 8:06 PM AKDT
Civil Twilight 7:19 AM AKDT 8:48 PM AKDT
Nautical Twilight 6:28 AM AKDT 9:40 PM AKDT
Astronomical Twilight 5:33 AM AKDT 10:35 PM AKDT
Moon 10:33 AM AKDT (3/18) 3:48 AM AKDT (3/18)
Length of Visible Light 13h 29m
Length of Day
12h 04m
Waxing Crescent, 42% of the Moon is Illuminated
Mar 18
Waxing Crescent
Mar 19
First Quarter
Mar 27
Full
Apr 2
Last Quarter
Apr 10
New

Hourly Weather History & Observations

Time (AKDT) Temp. Windchill Dew Point Humidity Pressure Visibility Wind Dir Wind Speed Gust Speed Precip Events Conditions
12:53 AM 12.0 °F - 8.1 °F 84% 30.03 in 10.0 mi Calm Calm - N/A   Mostly Cloudy
1:53 AM 7.0 °F - 6.1 °F 96% 30.03 in 10.0 mi Calm Calm - N/A   Mostly Cloudy
2:53 AM 6.1 °F - 3.9 °F 91% 30.02 in 10.0 mi Calm Calm - N/A   Overcast
3:53 AM 9.0 °F - 7.0 °F 92% 30.01 in 10.0 mi Calm Calm - N/A   Overcast
4:53 AM 6.1 °F - 5.0 °F 95% 29.99 in 10.0 mi Calm Calm - N/A   Overcast
5:53 AM 3.9 °F - 1.9 °F 91% 29.98 in 10.0 mi Calm Calm - N/A   Partly Cloudy
6:53 AM 3.9 °F - 1.9 °F 91% 29.97 in 10.0 mi Calm Calm - N/A   Overcast
7:53 AM 1.0 °F - -0.9 °F 91% 29.96 in 10.0 mi Calm Calm - N/A   Overcast
8:53 AM 1.9 °F - -0.9 °F 88% 29.96 in 10.0 mi Calm Calm - N/A   Mostly Cloudy
9:53 AM 8.1 °F - 6.1 °F 92% 29.95 in 10.0 mi Calm Calm - N/A   Clear
10:53 AM 10.9 °F - 7.0 °F 84% 29.94 in 10.0 mi Calm Calm - N/A   Clear
11:53 AM 15.1 °F 9.4 °F 8.1 °F 74% 29.94 in 10.0 mi East 3.5 mph - N/A   Clear
12:53 PM 21.0 °F 16.2 °F 10.9 °F 65% 29.93 in 10.0 mi Variable 3.5 mph - N/A   Clear
1:53 PM 24.1 °F 14.4 °F 10.9 °F 57% 29.92 in 10.0 mi West 9.2 mph - N/A   Clear
2:53 PM 25.0 °F 16.3 °F 12.0 °F 58% 29.91 in 10.0 mi West 8.1 mph - N/A   Clear
3:53 PM 25.0 °F 14.2 °F 12.0 °F 58% 29.90 in 10.0 mi West 11.5 mph - N/A   Clear
4:53 PM 26.1 °F 16.8 °F 10.0 °F 51% 29.89 in 10.0 mi West 9.2 mph - N/A   Clear
5:53 PM 24.1 °F 14.4 °F 9.0 °F 53% 29.88 in 10.0 mi West 9.2 mph - N/A   Clear
6:53 PM 24.1 °F 17.0 °F 9.0 °F 53% 29.87 in 10.0 mi WNW 5.8 mph - N/A   Mostly Cloudy
7:53 PM 21.0 °F 12.4 °F 9.0 °F 60% 29.86 in 10.0 mi WNW 6.9 mph - N/A   Clear
8:53 PM 19.0 °F 10.0 °F 8.1 °F 62% 29.86 in 10.0 mi WNW 6.9 mph - N/A   Scattered Clouds
9:53 PM 17.1 °F 10.0 °F 8.1 °F 68% 29.86 in 10.0 mi WNW 4.6 mph - N/A   Mostly Cloudy
10:53 PM 16.0 °F 10.4 °F 8.1 °F 71% 29.87 in 10.0 mi WNW 3.5 mph - N/A   Mostly Cloudy
11:53 PM 15.1 °F 5.2 °F 7.0 °F 70% 29.86 in 10.0 mi WNW 6.9 mph - N/A   Clear